Wetbulb
60.60 60.62 60.90 61.23 61.53 61.49 61.11 59.69 58.25 57.19 57.02 56.79 56.42 56.57 56.97 56.36 55.44 60.20 56.10 57.72 58.69 61.74 59.49 56.85 56.19 56.34 55.16 53.31 55.30 55.92 48.08 45.63 47.12 48.22 50.34 55.57 53.82 56.59 57.90 58.67 61.35 63.20 65.21 68.06 70.56
60.61 60.70 60.99 61.04 60.97 60.97 60.30 59.76 57.11 56.38 56.57 56.25 55.91 56.10 56.23 55.26 57.57 56.30 60.14 61.53 61.17 61.19 56.32 56.07 53.74 54.44 52.25 52.57 53.67 52.20 47.90 47.74 51.06 51.81 50.90 52.87 53.66 54.49 54.60 55.79 60.44 63.06 68.26 69.21 68.91
60.67 60.82 60.78 60.77 60.73 60.32 59.71 59.44 57.05 56.12 56.03 55.70 55.80 55.85 55.24 55.30 55.32 55.51 60.53 62.14 61.70 59.47 57.69 57.95 56.68 53.95 51.22 52.62 51.90 51.89 48.45 51.07 51.51 52.82 52.32 51.47 51.91 54.52 53.49 53.56 58.84 60.26 65.91 66.69 67.17
60.43 60.37 60.22 60.34 60.50 60.39 59.48 59.48 57.77 56.50 55.91 55.59 55.82 55.79 55.15 57.23 47.15 56.44 61.51 61.95 61.27 57.81 57.09 57.08 55.43 51.77 50.11 49.11 52.30 49.07 51.26 51.89 52.04 52.72 51.80 50.44 52.15 51.39 53.23 56.06 58.77 62.41 66.82 66.70 66.39
59.29 59.40 59.71 60.11 60.24 60.06 59.38 59.03 57.54 56.15 55.66 54.96 55.38 55.71 56.36 53.22 52.98 59.37 61.44 59.97 57.01 58.27 56.76 55.97 53.22 52.41 48.91 50.44 51.06 49.58 50.67 51.86 52.54 52.53 52.09 52.35 50.73 51.07 52.69 56.59 58.19 60.42 66.27 65.31 66.61
58.56 58.48 58.57 58.94 59.33 59.42 59.28 58.73 56.71 55.43 54.56 54.30 54.53 53.69 56.29 48.69 59.79 60.78 59.47 59.01 58.75 59.04 57.54 56.98 53.64 53.68 50.25 49.42 48.94 50.91 50.93 50.77 52.03 51.91 52.05 50.52 50.80 51.27 52.78 55.24 56.60 59.29 63.94 65.01 65.83
58.23 57.97 57.85 58.13 58.17 58.36 58.85 58.47 56.52 55.14 54.54 53.89 53.67 54.39 53.23 52.09 60.32 60.61 59.83 59.63 59.44 58.33 56.22 58.43 57.58 52.70 52.15 49.26 52.74 51.45 47.59 49.26 49.76 50.34 49.94 51.82 48.32 49.31 52.82 54.21 54.17 56.28 58.38 63.67 65.04
58.73 58.04 57.44 57.38 57.16 57.54 57.95 57.55 55.27 54.06 54.37 53.85 53.68 53.29 50.94 60.11 61.20 59.36 60.44 60.04 60.97 59.94 58.73 59.16 58.37 53.69 51.24 52.62 50.18 47.85 48.44 44.28 49.73 50.91 50.90 50.08 44.79 50.26 53.40 52.54 52.45 53.76 55.72 59.12 63.04
58.41 57.99 57.39 56.77 56.47 56.55 57.21 55.07 53.00 53.16 53.40 53.67 52.10 52.74 49.81 60.57 57.72 60.36 60.97 57.69 59.15 59.07 59.17 58.65 55.57 51.61 51.73 48.27 45.55 47.47 42.67 45.48 48.07 52.64 49.77 48.69 45.64 50.16 52.79 52.09 51.84 53.19 54.66 57.14 58.88
58.16 57.88 57.48 56.68 56.22 55.24 52.49 51.62 53.17 52.49 53.23 54.04 53.90 50.63 53.98 53.42 58.51 60.04 59.46 58.69 56.30 54.09 52.73 52.54 50.83 47.84 48.64 46.46 40.85 44.61 46.05 47.55 47.45 51.07 49.48 48.00 47.20 49.93 51.95 51.76 52.34 52.13 53.51 54.78 56.10
57.68 57.60 57.28 56.70 53.38 51.68 50.40 49.95 48.87 50.25 51.94 50.19 50.48 50.54 54.75 58.44 56.82 58.43 58.34 55.21 54.76 52.66 46.93 50.24 45.48 43.63 47.40 49.74 49.71 48.84 47.46 46.60 49.22 51.61 49.72 48.74 48.04 49.16 51.19 51.91 51.03 51.76 53.13 53.95 54.10
56.96 56.12 54.01 52.76 52.25 52.18 51.89 49.68 53.38 51.16 45.13 53.18 53.26 54.19 56.11 57.76 52.58 54.61 57.53 52.06 50.57 47.07 49.68 47.59 43.59 48.78 50.92 51.04 49.90 49.28 47.06 46.19 48.98 51.11 50.28 49.15 48.37 50.98 51.18 51.72 52.32 51.41 51.87 52.80 54.01
54.04 53.15 52.67 52.09 51.53 49.31 48.68 51.74 53.82 53.69 44.14 49.30 53.35 52.58 53.72 55.85 52.43 53.61 56.04 51.87 48.78 46.69 47.69 45.90 48.74 51.62 49.82 48.63 48.06 48.25 46.46 46.17 46.15 49.50 50.60 48.96 46.88 49.07 51.56 52.42 53.16 53.68 53.21 53.63 54.01
53.11 52.76 52.06 51.61 48.23 50.86 47.95 53.16 53.98 54.99 39.40 46.29 50.57 53.25 55.28 54.98 50.12 56.06 57.17 54.25 49.61 46.06 48.63 48.37 51.81 50.35 49.67 48.63 49.37 45.08 50.17 49.30 47.68 45.90 41.89 48.85 39.80 47.19 49.89 50.92 52.42 53.02 53.45 53.19 53.84
52.69 52.33 51.37 51.20 51.56 50.37 50.70 54.42 55.43 50.92 32.38 49.15 49.66 54.75 53.78 51.18 50.90 51.50 56.25 53.02 48.34 49.02 48.53 46.08 48.49 48.88 47.81 48.77 51.25 47.54 51.32 49.36 48.23 45.08 44.29 44.67 41.33 44.96 49.77 48.64 50.74 52.91 53.43 54.13 54.18
52.53 51.84 50.57 49.43 49.49 49.15 52.78 53.43 51.78 38.09 32.23 44.89 47.59 45.87 45.94 49.52 50.15 50.03 50.20 54.05 53.76 49.40 49.94 48.46 52.51 50.68 49.66 51.06 50.51 51.21 48.80 48.34 47.60 44.00 36.89 42.31 42.22 42.69 45.74 48.07 49.83 52.91 53.10 54.09 54.28
52.38 51.48 51.29 52.04 48.15 51.58 52.67 49.67 34.79 32.71 47.06 43.10 43.46 45.93 45.08 44.98 46.04 47.73 45.29 45.64 44.19 40.59 41.54 46.10 47.04 50.35 51.42 47.14 49.33 47.82 44.35 37.40 35.63 35.07 34.38 44.55 42.50 44.62 47.68 49.30 50.11 50.56 51.35 53.14 54.64
52.09 50.99 51.30 52.83 51.90 52.26 50.12 40.10 30.02 39.92 42.52 46.40 45.57 45.39 42.44 45.72 45.33 45.90 44.07 42.79 46.93 46.23 42.91 40.74 39.56 47.04 50.32 48.01 45.18 44.92 43.56 37.99 30.62 33.21 37.54 44.70 39.83 42.62 48.10 49.90 50.95 51.42 52.07 53.15 53.25
51.54 50.14 49.47 50.57 53.04 52.52 43.88 31.30 34.74 40.44 44.32 41.42 43.54 40.70 41.77 44.04 44.17 44.28 43.43 42.86 45.70 47.18 40.50 40.35 40.69 47.43 47.69 49.85 48.65 44.25 40.73 45.98 39.44 40.99 35.54 39.28 43.66 45.99 48.50 48.43 49.14 49.26 50.62 50.95 51.57
48.53 46.87 46.78 51.83 52.39 48.29 39.06 35.06 38.80 44.73 44.67 42.43 37.09 41.51 38.46 40.97 41.13 41.74 41.98 44.35 44.18 47.08 47.59 43.32 37.54 45.04 45.48 45.95 46.47 45.26 47.28 38.40 39.07 30.05 29.27 36.39 38.82 37.80 43.36 46.16 47.80 47.93 48.39 49.37 50.66
46.73 41.38 44.78 49.75 49.86 42.47 32.63 35.78 39.61 43.71 43.87 40.92 39.18 38.43 39.95 39.31 40.45 40.34 41.52 43.68 45.56 45.35 46.14 44.05 40.54 40.10 44.16 41.13 39.56 40.96 39.96 41.61 41.26 37.02 30.84 29.79 35.12 44.85 44.02 46.12 45.97 46.86 47.68 48.31 49.77
40.69 32.77 44.80 47.77 34.76 32.95 34.84 39.73 42.36 42.28 44.43 41.91 40.53 39.00 38.31 40.09 38.53 38.85 38.80 41.28 45.44 45.12 41.51 42.73 40.31 35.85 38.89 45.12 45.87 43.59 40.61 40.90 33.94 33.17 35.95 35.21 35.20 45.93 45.62 45.90 45.98 45.70 47.26 48.01 48.85
34.20 33.13 44.02 44.02 31.12 32.21 37.92 38.41 40.92 40.46 41.44 41.63 40.07 41.81 42.83 39.31 35.77 38.40 39.50 43.29 43.57 42.12 40.60 42.91 38.12 31.04 33.21 38.63 43.01 39.14 39.14 39.51 38.60 38.96 33.33 30.35 33.39 44.88 45.29 44.87 45.81 45.02 46.09 47.58 48.71
37.33 31.68 34.91 36.19 33.49 32.95 35.02 35.57 35.94 41.72 40.88 42.18 41.02 42.11 40.21 38.50 40.98 38.00 39.04 43.01 43.28 42.95 41.97 43.23 38.40 34.56 28.76 33.27 35.05 33.44 34.73 36.33 34.27 29.94 31.70 33.27 35.60 39.58 41.92 42.66 43.07 44.13 45.66 46.46 47.92
40.00 33.66 36.74 31.21 33.29 33.99 35.46 34.10 32.35 33.76 37.47 40.82 37.93 39.39 38.50 35.43 37.07 37.14 39.67 41.09 42.52 43.04 41.71 41.19 34.21 36.86 37.23 37.91 36.42 35.46 34.62 35.00 32.96 33.95 30.25 33.50 34.13 38.28 40.46 41.38 43.13 44.73 45.15 45.13 45.68
36.01 36.82 38.58 35.67 35.24 34.10 31.91 32.75 32.32 34.61 34.21 33.67 32.71 34.91 36.39 34.87 37.29 35.61 37.43 39.17 38.14 41.69 39.88 41.58 34.00 36.13 33.76 37.51 37.82 34.80 36.76 36.78 36.44 36.58 35.60 35.90 34.96 42.08 43.25 43.90 43.46 44.17 44.29 43.88 44.89
44.12 41.86 38.74 33.83 33.48 32.70 31.72 32.12 32.19 34.52 35.68 36.46 35.56 34.11 32.80 36.23 38.27 38.75 40.85 41.67 40.62 39.02 38.30 37.79 35.62 32.97 29.06 35.12 34.60 30.16 35.26 36.44 36.89 38.37 37.42 32.43 38.06 42.60 41.79 42.26 43.10 43.89 44.19 44.22 45.10
MSLP
1017.39 1017.57 1017.64 1017.73 1017.72 1017.67 1017.53 1017.45 1017.31 1017.24 1016.96 1016.42 1015.98 1015.40 1014.75 1014.14 1012.96 1011.00 1010.11 1010.22 1009.95 1009.79 1009.75 1008.55 1007.41 1006.22 1005.70 1005.21 1004.77 1004.21 1003.75 1002.23 1000.96 999.83 999.10 998.33 998.76 998.98 999.07 998.94 999.35 1000.49 1001.89 1003.11 1005.31
1017.17 1017.13 1017.35 1017.48 1017.49 1017.53 1017.57 1017.45 1017.30 1017.15 1016.99 1016.50 1016.05 1015.43 1014.73 1013.74 1012.50 1010.39 1009.72 1009.83 1009.55 1009.65 1009.45 1008.16 1007.06 1006.35 1005.64 1004.65 1003.90 1003.62 1003.05 1001.64 1000.66 1000.24 1000.00 999.53 999.53 999.51 999.63 999.75 1000.12 1001.52 1003.35 1004.33 1005.71
1017.05 1017.31 1017.15 1016.98 1017.20 1017.35 1017.47 1017.49 1017.50 1017.15 1016.82 1016.58 1016.08 1015.35 1014.72 1013.95 1011.69 1009.52 1009.86 1009.74 1009.54 1009.68 1009.09 1008.09 1007.27 1006.40 1005.51 1004.61 1003.46 1002.96 1002.46 1001.91 1001.11 1000.71 1000.84 1000.57 1000.18 999.88 999.75 999.89 1000.07 1001.52 1003.66 1005.21 1005.88
1016.67 1016.99 1017.11 1017.13 1017.01 1016.95 1016.96 1017.38 1017.35 1017.35 1016.97 1016.68 1016.27 1015.66 1014.64 1013.81 1010.97 1009.39 1009.74 1009.69 1009.40 1009.36 1008.76 1007.61 1006.78 1006.01 1005.03 1004.28 1003.36 1002.71 1002.36 1002.01 1001.50 1001.06 1001.17 1001.30 1000.96 1000.34 1000.10 999.82 1000.24 1000.73 1002.39 1004.23 1005.57
1016.31 1016.75 1016.87 1016.90 1016.98 1017.01 1016.87 1016.75 1017.26 1017.22 1017.08 1016.82 1016.39 1015.92 1014.89 1012.62 1009.72 1008.96 1009.49 1009.57 1009.23 1008.63 1008.13 1007.48 1006.97 1006.15 1005.14 1004.21 1003.41 1002.61 1002.26 1002.07 1001.63 1001.21 1001.53 1001.59 1001.39 1000.89 1000.31 1000.27 1000.53 1000.94 1002.15 1003.85 1004.67
1016.20 1016.44 1016.61 1016.65 1016.85 1016.94 1016.97 1016.72 1017.02 1017.07 1017.12 1016.71 1016.61 1016.33 1014.78 1012.24 1008.63 1008.27 1008.55 1008.71 1008.71 1008.31 1007.62 1007.28 1006.75 1006.33 1005.90 1005.16 1004.42 1003.52 1002.70 1002.25 1001.86 1001.41 1001.39 1001.34 1001.27 1001.19 1000.80 1000.51 1000.51 1001.23 1002.46 1003.79 1004.39
1015.80 1016.06 1016.37 1016.45 1016.40 1016.74 1016.81 1016.69 1016.89 1016.84 1017.08 1016.64 1016.65 1016.31 1014.46 1011.24 1009.22 1008.57 1008.59 1008.31 1008.29 1008.15 1007.53 1007.54 1006.97 1006.70 1006.04 1005.41 1004.58 1003.97 1003.34 1002.66 1001.77 1001.24 1001.07 1001.15 1000.84 1000.39 1000.55 1000.42 1000.51 1000.98 1001.64 1002.73 1003.89
1015.45 1015.76 1015.92 1016.01 1016.18 1016.28 1016.43 1016.82 1016.79 1016.87 1016.89 1016.71 1016.51 1016.05 1012.81 1009.91 1009.41 1008.53 1008.06 1007.76 1007.68 1007.74 1007.53 1007.68 1007.59 1007.09 1006.74 1005.99 1005.04 1004.45 1003.52 1002.23 1000.91 999.96 999.58 1000.37 1000.03 1000.02 999.83 1000.06 1000.14 1000.56 1001.29 1001.78 1002.81
1014.98 1015.26 1015.60 1015.74 1015.92 1015.94 1016.24 1016.81 1016.56 1016.66 1016.64 1016.76 1016.21 1014.90 1011.25 1008.58 1008.19 1007.65 1007.81 1007.27 1007.27 1006.87 1006.98 1007.24 1007.45 1007.15 1006.60 1005.95 1005.08 1003.95 1002.70 1001.29 999.99 998.73 999.18 999.35 999.58 999.73 999.57 999.58 999.67 1000.02 1000.57 1001.25 1001.91
1014.68 1014.91 1015.19 1015.25 1015.70 1015.84 1016.22 1016.68 1016.47 1016.43 1015.95 1015.67 1015.02 1014.13 1010.52 1007.95 1006.75 1006.57 1006.46 1006.54 1006.65 1006.68 1007.09 1007.06 1007.02 1006.52 1005.40 1005.19 1003.64 1002.49 1001.35 1000.31 999.40 998.76 999.12 999.18 999.28 999.46 999.51 999.03 999.03 999.34 999.70 1000.45 1001.18
1014.18 1014.42 1014.76 1015.02 1015.47 1015.89 1016.34 1016.84 1016.55 1015.46 1014.48 1012.53 1010.94 1009.54 1007.25 1006.75 1006.48 1006.20 1005.98 1006.39 1006.67 1006.47 1006.52 1006.10 1006.14 1004.95 1003.92 1003.26 1002.87 1002.26 1001.49 1000.49 999.70 999.16 999.04 998.85 998.78 998.97 998.97 998.72 998.98 999.23 999.47 999.93 1000.27
1013.60 1013.86 1014.32 1015.10 1015.64 1016.13 1016.04 1015.62 1014.70 1014.24 1012.51 1010.88 1009.88 1008.48 1007.72 1006.84 1006.39 1005.90 1005.82 1006.25 1006.28 1005.92 1005.85 1005.54 1004.40 1004.00 1003.27 1002.33 1001.62 1001.08 1001.10 1000.87 1000.40 1000.03 999.78 999.19 998.56 998.42 998.45 998.47 998.32 998.62 999.17 999.74 1000.19
1013.66 1013.93 1014.31 1015.15 1015.72 1016.23 1015.48 1014.62 1013.89 1013.98 1013.03 1009.24 1007.78 1006.46 1006.73 1006.91 1005.48 1005.44 1005.46 1005.57 1005.49 1005.37 1004.80 1003.99 1002.97 1002.97 1002.61 1002.06 1001.62 1001.09 1001.05 1001.26 1000.91 1000.48 999.92 999.60 998.05 998.00 997.83 997.67 997.60 997.58 997.92 998.80 999.72
1013.44 1013.99 1014.42 1015.23 1016.16 1014.93 1014.88 1014.06 1013.90 1014.34 1012.55 1006.52 1004.78 1003.69 1004.71 1005.36 1004.63 1004.66 1004.85 1005.09 1005.04 1004.74 1004.15 1003.15 1003.01 1002.36 1001.77 1001.20 1001.54 1001.16 1001.66 1001.12 1001.03 1000.86 999.89 999.98 997.24 997.25 996.92 996.33 995.99 996.41 997.05 997.66 998.82
1013.02 1013.82 1014.35 1014.36 1014.49 1014.18 1014.23 1013.41 1013.93 1014.31 1010.78 1004.22 1004.09 1004.34 1003.91 1004.09 1003.80 1003.61 1004.29 1004.59 1004.21 1004.29 1004.69 1002.61 1002.86 1002.01 1001.63 1001.37 1001.35 1000.93 1001.85 1001.92 1001.69 1001.56 1001.18 999.95 999.65 994.79 996.82 996.14 995.43 995.17 995.92 996.99 998.16
1013.12 1013.64 1014.23 1014.66 1014.76 1014.92 1014.56 1014.15 1014.42 1013.64 1008.15 1004.11 1004.27 1004.36 1004.18 1004.06 1003.99 1003.73 1004.00 1003.87 1004.36 1004.41 1003.80 1003.12 1002.95 1002.05 1001.42 1001.55 1001.77 1001.81 1002.11 1002.40 1002.49 1002.92 1001.42 1000.22 1000.35 994.23 997.26 996.52 995.93 995.21 995.98 997.33 998.61
1012.91 1013.42 1013.88 1014.12 1014.46 1014.79 1014.70 1014.80 1014.27 1011.06 1005.37 1004.09 1003.48 1003.72 1003.45 1003.44 1003.85 1003.57 1003.88 1003.96 1003.84 1004.04 1003.48 1003.08 1002.47 1002.04 1001.71 1001.71 1002.06 1002.35 1002.57 1002.83 1002.67 1002.73 1000.45 1000.24 999.68 997.82 997.93 998.27 998.23 998.30 998.82 999.47 1000.05
1012.93 1013.45 1013.64 1013.60 1014.08 1014.47 1014.79 1014.68 1012.42 1008.25 1005.35 1004.40 1003.48 1003.32 1003.21 1002.86 1002.86 1002.96 1003.32 1003.27 1003.90 1003.32 1002.23 1001.48 1000.80 1000.62 1000.62 1000.77 1001.48 1001.93 1002.83 1003.00 1002.50 1002.10 1000.98 1000.08 999.36 999.89 999.89 1000.44 1000.90 1001.12 1001.28 1001.65 1002.22
1012.81 1013.37 1013.67 1013.65 1013.70 1014.27 1014.50 1013.48 1010.15 1007.35 1005.76 1006.37 1005.61 1004.14 1003.02 1002.89 1002.64 1002.34 1002.74 1002.79 1002.50 1002.45 1002.67 1001.50 1000.50 1000.87 1000.87 1000.23 1001.19 1002.14 1002.44 1003.04 1003.13 1003.15 1003.29 1001.68 1000.79 1001.38 1001.52 1001.91 1002.63 1003.17 1003.57 1003.99 1004.49
1012.42 1013.16 1013.49 1013.31 1013.53 1014.16 1013.77 1011.67 1009.07 1006.90 1006.13 1006.26 1005.88 1004.63 1003.65 1003.16 1003.24 1003.08 1002.72 1003.01 1002.44 1002.25 1002.41 1002.52 1002.03 1001.64 1001.62 1002.15 1002.30 1002.55 1003.06 1003.46 1004.13 1005.06 1003.96 1002.18 1001.81 1002.25 1002.68 1002.87 1003.64 1004.55 1005.17 1005.64 1005.94
1012.23 1013.12 1013.89 1013.70 1013.87 1013.60 1012.43 1010.72 1009.07 1007.89 1007.46 1007.20 1006.23 1005.41 1004.53 1004.12 1003.77 1003.82 1003.44 1003.81 1003.84 1003.72 1004.03 1003.88 1003.68 1002.80 1002.53 1002.88 1003.30 1003.36 1003.99 1004.45 1004.82 1006.05 1005.41 1004.39 1003.63 1004.12 1004.42 1004.75 1005.31 1005.63 1005.92 1006.13 1006.40
1013.38 1013.76 1014.22 1013.94 1014.25 1013.44 1011.74 1010.10 1009.14 1007.86 1007.75 1007.69 1007.43 1006.76 1005.67 1005.11 1004.82 1004.49 1004.33 1005.33 1005.73 1005.46 1005.39 1005.78 1005.19 1004.39 1004.07 1003.80 1004.34 1004.90 1004.93 1005.13 1005.74 1006.03 1006.02 1006.23 1005.33 1005.22 1005.52 1005.79 1006.37 1006.89 1007.01 1007.12 1007.03
1013.86 1014.32 1014.62 1013.92 1014.02 1013.46 1012.02 1010.99 1009.76 1008.96 1007.99 1007.57 1007.36 1007.03 1006.53 1006.11 1005.97 1005.74 1005.61 1006.17 1006.57 1006.78 1006.89 1006.39 1006.31 1006.22 1005.57 1005.65 1005.33 1006.88 1007.63 1007.64 1007.78 1007.20 1006.88 1006.95 1006.10 1006.03 1006.58 1006.74 1006.94 1007.41 1007.33 1007.26 1007.25
1014.05 1014.53 1014.78 1014.53 1014.04 1013.74 1012.45 1011.25 1010.55 1010.08 1009.28 1008.14 1007.73 1007.54 1007.17 1006.63 1006.38 1006.07 1005.97 1006.18 1007.10 1007.11 1007.68 1007.75 1007.30 1007.06 1006.87 1007.62 1008.51 1009.09 1009.66 1009.62 1009.67 1009.60 1008.64 1007.30 1006.75 1007.14 1007.42 1007.42 1007.39 1007.55 1007.48 1007.02 1006.90
1013.47 1013.73 1013.41 1013.66 1013.51 1013.73 1013.03 1012.23 1011.36 1011.19 1010.83 1009.79 1009.59 1008.93 1008.15 1007.99 1007.75 1006.88 1006.65 1006.48 1007.09 1007.67 1007.89 1007.81 1007.40 1007.38 1007.37 1007.72 1008.73 1008.96 1009.21 1009.33 1009.61 1009.35 1009.25 1007.59 1007.45 1006.32 1006.95 1006.55 1006.25 1006.56 1006.41 1006.53 1006.67
1013.42 1013.11 1012.86 1013.34 1012.90 1013.24 1012.88 1012.68 1011.77 1011.93 1011.88 1011.79 1011.41 1011.06 1010.42 1010.01 1009.57 1008.83 1008.78 1007.56 1007.63 1007.65 1007.69 1007.79 1007.44 1007.54 1007.35 1007.50 1007.65 1008.34 1008.19 1007.58 1007.92 1007.63 1007.62 1007.21 1006.62 1005.67 1005.89 1005.70 1005.36 1005.47 1005.66 1005.83 1006.20
1012.58 1012.69 1013.08 1012.69 1012.16 1012.21 1012.42 1012.25 1011.81 1011.91 1012.27 1012.09 1012.22 1012.13 1011.36 1011.35 1011.72 1011.21 1010.38 1009.38 1008.80 1008.28 1007.83 1007.72 1007.81 1007.66 1007.05 1007.27 1006.99 1006.87 1005.85 1006.05 1005.75 1005.62 1005.50 1005.06 1004.64 1004.59 1004.44 1004.34 1004.30 1004.93 1005.38 1005.66 1005.90
Wind_Speed
10 9 8 8 7 6 6 6 8 10 12 14 18 19 19 19 25 20 17 1 3 7 12 14 16 16 14 15 15 12 12 14 19 19 18 9 3 6 11 11 8 6 10 18 20
10 10 9 8 8 7 8 7 7 9 11 13 16 19 22 20 17 22 2 5 4 7 10 14 14 14 11 16 11 12 12 18 19 10 12 16 3 10 7 14 8 17 18 21 21
10 10 10 9 9 9 8 8 8 9 11 13 16 19 22 22 16 4 5 3 3 5 12 15 15 15 16 15 16 14 16 18 21 12 9 16 16 8 13 13 10 15 18 16 17
11 11 10 10 10 10 8 8 7 10 11 13 16 19 23 8 8 5 6 3 5 7 12 14 12 14 14 17 17 17 20 15 19 16 6 12 15 19 16 9 14 17 23 20 18
11 11 11 10 10 10 9 7 7 8 10 12 15 18 12 9 17 5 6 7 6 11 11 13 13 15 15 14 16 16 15 17 20 13 13 11 16 17 16 8 13 5 23 19 18
11 10 11 10 10 10 10 7 7 7 9 10 14 19 11 20 12 10 7 7 11 13 13 13 11 13 11 16 18 17 19 16 16 17 15 16 16 15 16 15 13 9 17 15 16
11 11 11 11 10 10 10 8 8 8 10 9 10 9 13 24 15 22 22 17 13 16 14 14 12 9 11 15 12 14 15 18 20 20 21 17 18 20 18 17 12 12 10 18 15
12 11 11 11 10 10 9 9 8 7 9 11 9 8 12 18 18 22 19 19 18 16 17 16 17 12 15 14 19 18 18 18 18 22 21 17 17 19 19 17 17 12 12 11 18
12 11 11 11 10 9 8 6 6 8 10 9 8 8 14 17 14 20 20 21 17 19 15 12 10 14 14 16 15 14 15 20 21 18 12 17 16 16 16 16 18 15 15 13 15
9 11 10 10 9 6 7 2 5 7 9 10 10 11 15 14 14 12 11 12 13 7 10 12 9 12 14 15 15 16 20 19 17 11 14 13 15 17 17 16 11 18 17 15 16
10 9 9 9 12 12 7 2 4 8 10 14 13 10 5 15 2 12 10 10 11 12 16 14 12 18 22 21 22 21 20 22 18 18 17 14 15 15 17 16 14 11 10 13 12
10 9 14 13 11 8 1 4 8 3 12 21 26 24 24 22 12 12 12 13 16 20 19 18 20 21 22 21 21 19 16 18 18 18 18 19 21 20 16 18 16 18 16 14 13
14 16 16 13 10 3 6 10 6 10 7 15 27 32 25 25 27 21 18 18 20 19 20 23 16 25 22 20 20 20 17 18 21 20 22 20 24 20 19 22 21 19 18 19 16
18 17 16 15 5 7 4 7 2 3 7 11 18 18 26 21 24 17 26 24 22 25 22 23 22 24 23 18 14 20 17 20 21 18 14 15 20 17 17 16 20 24 20 18 17
18 16 16 12 2 6 4 5 5 1 5 6 11 4 4 17 1 10 18 25 30 25 19 22 19 20 25 25 21 22 20 18 20 14 19 20 12 18 14 19 20 17 20 15 14
16 16 13 2 1 2 6 5 2 3 10 7 9 10 11 17 16 2 4 16 19 22 21 27 23 22 15 14 15 17 19 17 13 11 18 15 15 29 11 4 14 5 13 7 10
16 17 8 4 3 4 3 1 3 7 8 9 9 12 15 14 16 14 8 11 13 15 20 25 29 27 23 20 14 14 10 9 10 11 16 6 15 17 12 12 13 12 12 12 10
16 15 4 3 7 7 3 3 7 10 14 7 2 10 12 12 12 14 13 12 19 18 14 13 12 26 19 27 19 16 15 9 11 11 15 13 9 3 18 16 17 16 11 11 11
16 4 4 3 9 5 4 5 8 9 6 6 13 10 12 11 7 10 15 15 16 19 16 9 12 3 8 6 18 16 18 17 20 16 9 9 4 16 9 11 11 9 12 13 9
4 4 2 8 7 4 4 7 11 13 9 3 6 9 7 12 12 15 12 8 11 15 4 7 11 10 5 5 8 12 12 6 2 4 9 13 14 4 5 9 9 9 10 8 7
2 4 3 3 2 4 6 11 13 17 8 10 12 14 13 15 12 11 10 1 4 10 3 6 8 11 6 6 8 10 12 13 9 7 3 5 0 8 10 11 9 8 9 7 6
1 3 2 1 4 2 9 9 8 14 14 8 4 9 9 9 11 12 13 4 7 8 8 4 4 10 15 16 9 14 13 10 10 17 7 6 6 9 8 9 10 10 8 5 6
2 2 2 2 4 4 6 9 10 7 16 13 11 13 15 12 8 10 10 8 5 2 5 3 1 6 9 13 2 7 9 9 12 6 12 11 5 10 9 8 4 4 6 6 7
3 1 1 1 2 3 7 4 10 7 16 15 17 15 18 17 18 16 18 9 7 9 4 2 5 8 11 1 3 3 4 5 5 3 7 9 10 3 6 7 9 11 12 11 9
1 4 5 1 2 5 5 1 1 3 8 6 4 17 16 19 18 19 20 18 13 9 8 6 13 14 15 16 13 9 10 14 13 13 8 15 12 19 12 10 15 14 10 11 10
2 3 5 1 7 7 3 1 2 3 4 5 5 10 10 10 13 10 10 14 11 16 16 14 10 13 17 17 17 17 19 20 19 21 20 19 21 19 14 16 15 12 11 10 8
2 4 3 3 3 6 6 8 8 6 5 5 2 6 8 7 11 11 12 12 12 13 14 12 11 14 16 16 17 15 25 20 21 21 20 18 20 18 16 13 13 9 11 11 3
Wind_Direction
225 233 235 242 256 271 292 314 328 329 330 333 331 327 323 326 310 307 291 55 43 351 325 277 275 271 255 261 258 267 265 265 267 277 331 108 187 230 267 296 145 103 39 116 134
229 223 229 240 250 261 288 302 314 321 323 329 328 326 323 332 310 296 74 134 46 24 310 321 317 318 294 279 251 228 256 260 269 345 330 326 10 282 209 266 161 93 91 120 148
232 239 234 228 236 250 271 287 300 308 322 329 330 329 323 323 305 84 179 137 27 290 280 296 286 285 283 277 274 244 252 271 286 330 327 310 301 250 276 232 223 154 135 150 169
228 236 241 244 241 240 250 277 290 307 322 331 331 327 319 302 291 105 176 186 216 278 287 289 287 287 279 276 274 246 261 273 276 296 286 278 282 277 255 240 257 179 155 162 184
226 236 240 243 251 256 251 246 277 298 320 329 331 328 328 306 262 248 169 216 258 260 275 292 292 289 281 283 286 274 275 268 275 265 275 263 272 283 286 271 267 323 149 165 179
233 236 239 243 251 254 264 256 265 291 307 320 328 323 297 281 268 179 217 273 268 282 273 274 272 306 306 274 273 286 288 293 290 284 260 246 251 261 255 267 243 179 154 170 182
226 227 236 241 241 254 260 259 251 264 285 303 320 309 277 253 296 305 298 281 262 275 276 280 286 269 295 300 288 291 285 273 264 254 249 257 255 242 253 243 226 205 208 172 184
224 225 228 232 236 238 247 249 246 277 292 298 308 297 263 266 269 269 274 273 259 250 259 267 279 271 267 278 284 280 266 270 268 251 228 217 248 249 231 240 228 201 225 186 181
220 218 225 229 230 224 229 234 251 264 259 275 281 215 274 266 241 247 247 254 254 245 245 247 251 253 263 250 260 243 255 257 266 250 214 222 237 251 265 243 225 226 206 205 200
226 230 228 227 226 171 141 195 269 272 233 244 244 283 238 247 262 216 243 217 226 228 221 221 225 243 222 237 239 249 243 234 245 269 201 227 237 242 260 276 250 218 201 212 208
220 227 239 232 145 139 129 238 271 236 225 217 199 235 252 219 283 245 217 211 242 233 225 201 216 227 231 226 237 258 273 286 290 299 304 273 244 255 281 263 231 256 234 223 228
205 159 136 140 142 151 212 203 241 338 290 231 254 252 253 279 272 233 210 216 217 229 227 238 227 241 245 246 253 253 268 272 276 273 275 276 274 272 242 261 252 217 231 238 238
145 141 138 134 127 141 221 213 21 2 268 255 242 241 237 241 251 237 245 215 238 225 234 231 239 224 238 256 260 253 247 264 276 285 287 294 279 272 254 247 247 241 214 211 217
147 147 146 143 163 167 215 233 312 62 273 265 215 246 228 218 257 243 235 245 230 247 244 247 253 265 266 251 255 265 264 259 257 267 267 261 283 268 281 284 237 227 226 205 213
152 157 159 182 19 172 34 81 39 114 268 78 125 55 197 192 242 189 226 228 238 239 238 249 247 240 250 254 260 261 272 266 281 289 297 262 265 269 247 244 244 240 206 203 185
155 149 138 121 53 44 7 46 75 179 237 184 141 188 180 208 238 105 238 219 225 249 251 258 260 269 281 259 261 278 269 271 258 264 257 258 246 276 254 336 22 343 147 168 162
156 154 167 163 150 133 83 84 127 217 245 174 183 178 199 187 214 228 195 191 201 218 241 245 249 256 256 255 249 265 247 243 235 219 248 242 242 246 80 76 49 45 67 56 52
162 155 195 147 141 141 115 57 215 236 254 4 31 178 216 220 204 204 231 212 217 239 274 263 246 222 225 234 234 233 229 237 232 246 262 314 268 58 65 51 44 27 30 69 49
153 161 153 206 149 160 150 190 212 236 301 140 290 258 245 226 272 217 230 238 238 206 235 282 244 83 352 238 212 235 251 242 265 280 300 267 314 98 64 96 69 49 40 39 41
148 140 129 163 159 168 206 223 227 257 311 283 239 284 258 248 233 232 236 18 252 263 254 282 286 282 107 19 283 258 272 280 69 228 238 253 257 36 63 74 91 81 62 53 41
84 132 22 8 148 215 204 222 224 268 314 261 252 250 261 254 277 246 256 46 307 319 311 290 269 271 268 199 255 233 240 251 253 181 258 292 74 89 66 67 81 70 60 46 60
7 141 1 236 186 256 217 217 257 254 204 231 262 281 279 282 279 260 243 48 320 331 283 91 318 282 271 259 337 311 299 271 243 241 244 223 279 102 91 83 49 26 10 1 348
76 70 311 73 198 226 237 231 257 247 253 206 235 241 253 255 246 239 256 129 163 243 331 31 291 283 273 280 262 347 352 359 332 298 246 254 243 79 45 0 25 349 310 283 298
146 135 266 52 133 307 237 245 231 247 263 271 271 266 256 249 239 246 250 218 205 217 136 240 211 219 248 214 129 186 307 5 66 326 327 271 301 243 217 263 293 287 275 270 240
103 200 203 204 177 239 308 333 87 321 1 291 310 243 241 238 249 253 247 244 188 179 184 229 237 237 246 256 197 207 221 235 237 233 218 264 270 266 274 269 259 255 249 256 251
191 230 154 225 236 180 80 294 2 87 21 358 25 358 359 296 242 274 303 277 222 206 213 218 236 249 255 252 218 222 233 234 235 232 225 241 255 262 271 260 258 264 260 254 251
321 323 331 329 221 185 202 234 259 321 228 212 314 326 343 27 343 319 286 262 245 266 236 233 246 233 241 245 260 241 244 249 240 238 236 241 248 259 263 261 264 247 240 245 284